| time (UTC) | temp F | wind direction | speed knots | gust knots | rain 1hr in | rain 24hr in | rain mn in | humidity % | barometer mb |
| 20260509053534 | 56 | 103 | 0.9 | 2.6 | 0.00 | 0.00 | 0.00 | 94 | 1014.0 |
| 20260509052531 | 57 | 72 | 1.7 | 1.7 | 0.00 | 0.00 | 0.00 | 93 | 1013.8 |
| 20260509051528 | 57 | 90 | 1.7 | 2.6 | 0.00 | 0.00 | 0.00 | 93 | 1013.8 |
| 20260509050524 | 57 | 85 | 1.7 | 2.6 | 0.00 | 0.00 | 0.00 | 93 | 1013.8 |
| 20260509045521 | 57 | 87 | 1.7 | 2.6 | 0.00 | 0.00 | 0.00 | 93 | 1014.0 |
| 20260509044538 | 57 | 77 | 1.7 | 2.6 | 0.00 | 0.00 | 0.00 | 92 | 1014.1 |
| 20260509043534 | 58 | 76 | 1.7 | 1.7 | 0.00 | 0.00 | 0.00 | 92 | 1014.3 |
| 20260509042531 | 58 | 69 | 0.9 | 1.7 | 0.00 | 0.00 | 0.00 | 91 | 1014.3 |
| 20260509041528 | 58 | 85 | 1.7 | 1.7 | 0.00 | 0.00 | 0.00 | 90 | 1014.2 |
| 20260509040544 | 59 | 72 | 0.9 | 1.7 | 0.00 | 0.00 | 0.00 | 89 | 1014.2 |
| 20260509035541 | 59 | 89 | 0.9 | 1.7 | 0.00 | 0.00 | 0.00 | 88 | 1014.5 |
| 20260509034517 | 59 | 88 | 0.9 | 2.6 | 0.00 | 0.00 | 0.00 | 87 | 1014.8 |
| 20260509033535 | 60 | 97 | 1.7 | 3.5 | 0.00 | 0.00 | 0.00 | 87 | 1014.7 |
| 20260509032531 | 60 | 105 | 1.7 | 2.6 | 0.00 | 0.00 | 0.00 | 87 | 1015.0 |
| 20260509031528 | 60 | 109 | 1.7 | 2.6 | 0.00 | 0.00 | 0.00 | 87 | 1015.1 |
| 20260509030524 | 60 | 61 | 0.9 | 1.7 | 0.00 | 0.00 | 0.00 | 87 | 1015.3 |
| 20260509025541 | 60 | 82 | 0.9 | 1.7 | 0.00 | 0.00 | 0.00 | 87 | 1015.3 |
| 20260509024518 | 60 | 108 | 0.9 | 1.7 | 0.00 | 0.00 | 0.00 | 86 | 1015.3 |
| 20260509023534 | 61 | 93 | 0.9 | 2.6 | 0.00 | 0.00 | 0.00 | 85 | 1015.1 |
| 20260509022531 | 61 | 85 | 0.9 | 1.7 | 0.00 | 0.00 | 0.00 | 84 | 1015.2 |
| 20260509021528 | 61 | 98 | 0.0 | 1.7 | 0.00 | 0.00 | 0.00 | 83 | 1014.7 |
| 20260509020524 | 62 | 108 | 0.9 | 1.7 | 0.00 | 0.00 | 0.00 | 82 | 1015.0 |
| 20260509015521 | 62 | 51 | 0.0 | 1.7 | 0.00 | 0.00 | 0.00 | 81 | 1014.8 |
| 20260509014518 | 62 | 55 | 0.0 | 1.7 | 0.00 | 0.00 | 0.00 | 81 | 1014.7 |
| 20260509013535 | 62 | 89 | 0.9 | 2.6 | 0.00 | 0.00 | 0.00 | 82 | 1015.0 |
| 20260509012551 | 62 | 106 | 0.9 | 1.7 | 0.00 | 0.00 | 0.00 | 83 | 1014.7 |
| 20260509011548 | 62 | 106 | 0.0 | 1.7 | 0.00 | 0.00 | 0.00 | 83 | 1014.6 |
| 20260509010525 | 62 | 92 | 0.9 | 1.7 | 0.00 | 0.00 | 0.00 | 81 | 1014.6 |
| 20260509005521 | 63 | 44 | 0.9 | 1.7 | 0.00 | 0.00 | 0.00 | 80 | 1014.4 |
| 20260509004518 | 63 | 93 | 0.9 | 2.6 | 0.00 | 0.00 | 0.00 | 80 | 1014.3 |
| 20260509003535 | 63 | 103 | 0.9 | 2.6 | 0.00 | 0.00 | 0.00 | 80 | 1014.4 |
| 20260509002532 | 63 | 261 | 0.9 | 2.6 | 0.00 | 0.00 | 0.00 | 76 | 1014.4 |
| 20260509001529 | 63 | 126 | 0.9 | 2.6 | 0.00 | 0.00 | 0.00 | 78 | 1014.4 |
| 20260509000545 | 63 | 94 | 0.9 | 1.7 | 0.00 | 0.00 | 0.00 | 80 | 1014.4 |
| 20260508235521 | 64 | 73 | 0.9 | 1.7 | 0.00 | 0.00 | 0.00 | 79 | 1014.4 |
| 20260508234518 | 65 | 72 | 0.9 | 1.7 | 0.00 | 0.00 | 0.00 | 77 | 1014.5 |
| 20260508233535 | 65 | 79 | 0.0 | 1.7 | 0.00 | 0.00 | 0.00 | 76 | 1014.4 |
| 20260508232532 | 66 | 82 | 0.0 | 1.7 | 0.00 | 0.00 | 0.00 | 75 | 1014.1 |
| 20260508231548 | 66 | 69 | 0.9 | 1.7 | 0.00 | 0.00 | 0.00 | 74 | 1014.1 |
| 20260508230525 | 66 | 77 | 0.0 | 1.7 | 0.00 | 0.00 | 0.00 | 71 | 1014.1 |
| 20260508225522 | 67 | 86 | 0.9 | 1.7 | 0.00 | 0.00 | 0.00 | 68 | 1014.3 |
| 20260508224518 | 67 | 108 | 0.9 | 2.6 | 0.00 | 0.00 | 0.00 | 65 | 1014.3 |
| 20260508223535 | 67 | 54 | 0.0 | 1.7 | 0.00 | 0.00 | 0.00 | 68 | 1014.3 |
| 20260508222552 | 68 | 148 | 0.9 | 1.7 | 0.00 | 0.00 | 0.00 | 66 | 1014.3 |
| 20260508221528 | 68 | 126 | 0.0 | 1.7 | 0.00 | 0.00 | 0.00 | 64 | 1014.3 |
| 20260508220525 | 68 | 184 | 0.0 | 0.9 | 0.00 | 0.00 | 0.00 | 61 | 1014.3 |
| 20260508215522 | 68 | 66 | 0.9 | 1.7 | 0.00 | 0.00 | 0.00 | 59 | 1014.4 |
| 20260508214518 | 68 | 107 | 0.0 | 1.7 | 0.00 | 0.00 | 0.00 | 56 | 1014.3 |
| 20260508213535 | 68 | 58 | 0.0 | 1.7 | 0.00 | 0.00 | 0.00 | 58 | 1014.3 |
| 20260508212531 | 69 | 181 | 0.0 | 1.7 | 0.00 | 0.00 | 0.00 | 57 | 1014.4 |
| 20260508211549 | 69 | 71 | 0.0 | 1.7 | 0.00 | 0.00 | 0.00 | 55 | 1014.3 |
| 20260508210525 | 69 | 84 | 0.0 | 1.7 | 0.00 | 0.00 | 0.00 | 55 | 1014.4 |
| 20260508205521 | 69 | 34 | 0.9 | 2.6 | 0.00 | 0.00 | 0.00 | 53 | 1014.6 |
| 20260508204518 | 70 | 17 | 0.9 | 1.7 | 0.00 | 0.00 | 0.00 | 49 | 1014.6 |
| 20260508203534 | 70 | 254 | 0.9 | 2.6 | 0.00 | 0.00 | 0.00 | 49 | 1014.4 |
| 20260508202531 | 70 | 230 | 1.7 | 4.3 | 0.00 | 0.00 | 0.00 | 46 | 1014.6 |
| 20260508201528 | 70 | 210 | 1.7 | 4.3 | 0.00 | 0.00 | 0.00 | 49 | 1014.6 |
| 20260508200524 | 70 | 186 | 1.7 | 3.5 | 0.00 | 0.00 | 0.00 | 53 | 1014.8 |
| 20260508195521 | 70 | 324 | 0.9 | 3.5 | 0.00 | 0.00 | 0.00 | 49 | 1015.0 |
| 20260508194517 | 70 | 186 | 1.7 | 2.6 | 0.00 | 0.00 | 0.00 | 46 | 1015.0 |
| 20260508193534 | 71 | 294 | 1.7 | 3.5 | 0.00 | 0.00 | 0.00 | 46 | 1015.2 |
| 20260508192551 | 71 | 154 | 2.6 | 5.2 | 0.00 | 0.00 | 0.00 | 47 | 1015.3 |
| 20260508191527 | 71 | 152 | 2.6 | 5.2 | 0.00 | 0.00 | 0.00 | 48 | 1015.6 |
| 20260508190524 | 70 | 289 | 0.9 | 2.6 | 0.00 | 0.00 | 0.00 | 49 | 1015.8 |
| 20260508185520 | 70 | 205 | 1.7 | 7.0 | 0.00 | 0.00 | 0.00 | 51 | 1015.7 |
| 20260508184517 | 70 | 175 | 1.7 | 4.3 | 0.00 | 0.00 | 0.00 | 48 | 1015.9 |
| 20260508183534 | 69 | 166 | 2.6 | 5.2 | 0.00 | 0.00 | 0.00 | 49 | 1015.8 |
| 20260508182530 | 70 | 232 | 2.6 | 6.1 | 0.00 | 0.00 | 0.00 | 49 | 1016.1 |
| 20260508181527 | 69 | 188 | 1.7 | 4.3 | 0.00 | 0.00 | 0.00 | 50 | 1016.2 |
| 20260508180524 | 70 | 64 | 2.6 | 6.1 | 0.00 | 0.00 | 0.00 | 50 | 1016.3 |
| 20260508175520 | 70 | 146 | 2.6 | 5.2 | 0.00 | 0.00 | 0.00 | 50 | 1016.5 |
| 20260508174517 | 69 | 76 | 2.6 | 7.0 | 0.00 | 0.00 | 0.00 | 53 | 1016.8 |
| 20260508173533 | 69 | 62 | 3.5 | 7.8 | 0.00 | 0.00 | 0.00 | 51 | 1016.7 |
| 20260508172530 | 68 | 195 | 1.7 | 3.5 | 0.00 | 0.00 | 0.00 | 53 | 1016.6 |
| 20260508171547 | 68 | 250 | 3.5 | 8.7 | 0.00 | 0.00 | 0.00 | 55 | 1016.9 |
| 20260508170523 | 68 | 218 | 3.5 | 7.0 | 0.00 | 0.00 | 0.00 | 54 | 1017.2 |
| 20260508165540 | 67 | 140 | 2.6 | 7.0 | 0.00 | 0.00 | 0.00 | 56 | 1017.2 |
| 20260508164517 | 67 | 76 | 3.5 | 9.6 | 0.00 | 0.00 | 0.00 | 54 | 1017.4 |
| 20260508163553 | 68 | 72 | 4.3 | 7.8 | 0.00 | 0.00 | 0.00 | 56 | 1017.5 |
| 20260508162530 | 66 | 127 | 2.6 | 8.7 | 0.00 | 0.00 | 0.00 | 59 | 1017.8 |
| 20260508161547 | 66 | 65 | 2.6 | 6.1 | 0.00 | 0.00 | 0.00 | 61 | 1017.9 |
| 20260508160524 | 66 | 89 | 2.6 | 5.2 | 0.00 | 0.00 | 0.00 | 62 | 1018.2 |
| 20260508155614 | 66 | 252 | 3.5 | 6.1 | 0.00 | 0.00 | 0.00 | 60 | 1018.3 |
| 20260508154530 | 66 | 74 | 2.6 | 7.0 | 0.00 | 0.00 | 0.00 | 61 | 1018.2 |
| 20260508153526 | 65 | 66 | 2.6 | 5.2 | 0.00 | 0.01 | 0.00 | 63 | 1018.4 |
| 20260508152521 | 65 | 60 | 3.5 | 7.8 | 0.00 | 0.01 | 0.00 | 62 | 1018.3 |
| 20260508151517 | 65 | 96 | 3.5 | 8.7 | 0.00 | 0.01 | 0.00 | 61 | 1018.6 |
| 20260508150553 | 64 | 67 | 2.6 | 7.0 | 0.00 | 0.01 | 0.00 | 60 | 1018.6 |
| 20260508145528 | 64 | 106 | 3.5 | 7.8 | 0.00 | 0.01 | 0.00 | 61 | 1018.5 |
| 20260508144524 | 64 | 83 | 2.6 | 5.2 | 0.00 | 0.01 | 0.00 | 66 | 1018.4 |
| 20260508143520 | 63 | 79 | 3.5 | 5.2 | 0.00 | 0.01 | 0.00 | 66 | 1018.3 |
| 20260508142516 | 62 | 77 | 3.5 | 6.1 | 0.00 | 0.02 | 0.00 | 67 | 1018.4 |
| 20260508141535 | 61 | 66 | 4.3 | 6.1 | 0.00 | 0.06 | 0.00 | 68 | 1018.3 |
| 20260508140530 | 61 | 86 | 2.6 | 6.1 | 0.00 | 0.10 | 0.00 | 70 | 1018.4 |
| 20260508135525 | 61 | 79 | 3.5 | 7.0 | 0.00 | 0.11 | 0.00 | 69 | 1018.7 |
| 20260508134522 | 60 | 58 | 2.6 | 5.2 | 0.00 | 0.11 | 0.00 | 70 | 1018.8 |
| 20260508133518 | 60 | 79 | 3.5 | 6.1 | 0.00 | 0.13 | 0.00 | 72 | 1018.8 |
| 20260508132535 | 60 | 88 | 3.5 | 7.8 | 0.00 | 0.14 | 0.00 | 74 | 1018.6 |
| 20260508131531 | 58 | 103 | 1.7 | 3.5 | 0.00 | 0.19 | 0.00 | 80 | 1018.6 |
| 20260508130528 | 57 | 82 | 1.7 | 2.6 | 0.00 | 0.23 | 0.00 | 84 | 1018.5 |
| 20260508125524 | 56 | 68 | 1.7 | 3.5 | 0.00 | 0.25 | 0.00 | 85 | 1018.6 |
| 20260508124520 | 55 | 55 | 1.7 | 2.6 | 0.00 | 0.28 | 0.00 | 87 | 1018.5 |
| 20260508123517 | 54 | 87 | 0.9 | 1.7 | 0.00 | 0.38 | 0.00 | 89 | 1018.2 |
| 20260508122534 | 55 | 44 | 0.9 | 2.6 | 0.00 | 0.52 | 0.00 | 89 | 1018.1 |
| 20260508121610 | 55 | 70 | 1.7 | 2.6 | 0.00 | 0.54 | 0.00 | 88 | 1017.8 |
| 20260508120526 | 54 | 66 | 1.7 | 2.6 | 0.00 | 0.55 | 0.00 | 90 | 1017.6 |
| 20260508115523 | 54 | 76 | 2.6 | 4.3 | 0.00 | 0.58 | 0.00 | 92 | 1017.5 |
| 20260508114519 | 53 | 87 | 1.7 | 2.6 | 0.00 | 0.64 | 0.00 | 98 | 1017.4 |
| 20260508113516 | 52 | 63 | 1.7 | 4.3 | 0.00 | 0.67 | 0.00 | 99 | 1017.2 |
| 20260508112533 | 51 | 69 | 2.6 | 3.5 | 0.00 | 0.71 | 0.00 | 99 | 1017.2 |
| 20260508111549 | 50 | 72 | 1.7 | 3.5 | 0.00 | 0.83 | 0.00 | 99 | 1017.0 |
| 20260508110526 | 50 | 79 | 2.6 | 3.5 | 0.00 | 0.91 | 0.00 | 99 | 1016.7 |
| 20260508105522 | 50 | 83 | 1.7 | 2.6 | 0.00 | 0.92 | 0.00 | 99 | 1016.3 |
| 20260508104518 | 49 | 87 | 1.7 | 2.6 | 0.00 | 0.96 | 0.00 | 99 | 1016.0 |
| 20260508103535 | 49 | 85 | 1.7 | 2.6 | 0.00 | 1.02 | 0.00 | 99 | 1015.7 |
| 20260508102531 | 49 | 81 | 1.7 | 3.5 | 0.00 | 1.08 | 0.00 | 99 | 1015.7 |
| 20260508101528 | 49 | 80 | 1.7 | 2.6 | 0.00 | 1.09 | 0.00 | 99 | 1015.7 |
| 20260508100524 | 50 | 82 | 0.9 | 1.7 | 0.00 | 1.10 | 0.00 | 99 | 1015.8 |
| 20260508095521 | 50 | 77 | 1.7 | 2.6 | 0.00 | 1.15 | 0.00 | 99 | 1015.4 |
| 20260508094517 | 50 | 78 | 1.7 | 2.6 | 0.00 | 1.15 | 0.00 | 99 | 1015.5 |
| 20260508093534 | 50 | 88 | 1.7 | 2.6 | 0.00 | 1.15 | 0.00 | 99 | 1015.2 |
| 20260508092530 | 50 | 83 | 1.7 | 3.5 | 0.00 | 1.15 | 0.00 | 99 | 1015.1 |
| 20260508091527 | 50 | 87 | 2.6 | 3.5 | 0.00 | 1.15 | 0.00 | 99 | 1015.2 |
| 20260508090524 | 51 | 79 | 1.7 | 3.5 | 0.00 | 1.15 | 0.00 | 99 | 1015.1 |
| 20260508085520 | 51 | 78 | 1.7 | 2.6 | 0.00 | 1.15 | 0.00 | 99 | 1015.1 |
| 20260508084515 | 51 | 81 | 1.7 | 2.6 | 0.00 | 1.15 | 0.00 | 99 | 1014.8 |
| 20260508083532 | 51 | 85 | 1.7 | 2.6 | 0.00 | 1.16 | 0.00 | 99 | 1014.8 |
| 20260508082528 | 51 | 84 | 1.7 | 2.6 | 0.00 | 1.16 | 0.00 | 99 | 1014.8 |
| 20260508081525 | 51 | 88 | 1.7 | 2.6 | 0.00 | 1.20 | 0.00 | 98 | 1014.9 |
| 20260508080521 | 51 | 88 | 0.9 | 1.7 | 0.00 | 1.21 | 0.00 | 98 | 1014.8 |
| 20260508075518 | 51 | 86 | 1.7 | 2.6 | 0.00 | 1.21 | 0.00 | 98 | 1014.9 |
| 20260508074534 | 52 | 75 | 1.7 | 2.6 | 0.00 | 1.21 | 0.00 | 98 | 1014.9 |
| 20260508073551 | 52 | 91 | 0.9 | 1.7 | 0.00 | 1.21 | 0.00 | 98 | 1015.0 |
| 20260508072527 | 52 | 120 | 0.9 | 1.7 | 0.00 | 1.21 | 0.00 | 98 | 1014.8 |
| 20260508071523 | 52 | 81 | 1.7 | 2.6 | 0.00 | 1.22 | 0.00 | 98 | 1014.7 |
| 20260508070520 | 52 | 72 | 1.7 | 2.6 | 0.00 | 1.22 | 0.00 | 98 | 1014.9 |
| 20260508065516 | 52 | 84 | 1.7 | 2.6 | 0.00 | 1.22 | 0.00 | 98 | 1014.9 |
| 20260508064533 | 52 | 80 | 1.7 | 2.6 | 0.00 | 1.23 | 0.00 | 98 | 1015.0 |
| 20260508063529 | 52 | 69 | 0.9 | 1.7 | 0.00 | 1.24 | 0.00 | 98 | 1015.0 |
| 20260508062546 | 52 | 70 | 0.9 | 1.7 | 0.00 | 1.24 | 0.00 | 98 | 1015.0 |
| 20260508061522 | 53 | 70 | 1.7 | 2.6 | 0.00 | 1.25 | 0.00 | 98 | 1015.0 |
| 20260508060519 | 53 | 80 | 0.9 | 2.6 | 0.00 | 1.28 | 0.00 | 97 | 1015.0 |
| 20260508055535 | 53 | 81 | 0.0 | 1.7 | 0.00 | 1.32 | 0.00 | 97 | 1015.1 |
| 20260508054532 | 53 | 79 | 0.9 | 1.7 | 0.00 | 1.41 | 0.00 | 97 | 1015.0 |